Weather in Kimchaek

North Korea     40°42′08″N   129°12′44″E
temp.,
°C
wind,
m/s
gust,
m/s
humid.,
%
clouds,
%
prec.,
mm/h
press.,
hPa
HPBL,
m
18 may, wed
wed1800:00+11nw22621 0.0 101319
03:00+11nw225742 0.0 101216
06:00+12nw22585 0.0 101221
09:00+19se324378 0.0 1013398
12:00+20sse4641100 0.1 1012728
15:00+20s695277 0.1 1009620
18:00+13n369299 3.9 1011279
21:00+12nnw229324 5.6 101224
19 may, thu
thu1900:00+11nw11895 0.0 101411
03:00+10nw22820 0.0 101418
06:00+11nw22790 0.0 101532
09:00+19s225116 0.0 1014506
12:00+22sse564517 0.0 1013677
15:00+22s58485 0.0 1011650
18:00+15wsw3583100 1.0 1010185
21:00+13nw228912 8.5 101231
20 may, fri
fri2000:00+14nnw2283100 0.0 101128
03:00+14wnw2276100 0.0 101023
06:00+14nw3271100 0.0 101033
09:00+24n23400 0.0 1010486
12:00+24se44423 0.0 1009630
15:00+23se24425 0.1 1009598
18:00+22e11461 0.0 1008245
21:00+16w11602 0.0 100912
21 may, sat
sat2100:00+15nw22632 0.0 100813
03:00+15nw22600 0.0 100714
06:00+16nw22560 0.0 100616
09:00+25sse21370 0.0 1005409
12:00+25sse46391 0.0 1004506
15:00+26s58346 0.0 1002638
18:00+22sse2855100 0.1 1000355
21:00+17nne3674100 1.1 1004189
22 may, sun
sun2200:00+14sw228356 0.1 100426
03:00+13wnw22790 0.1 100317
06:00+15wnw22720 0.0 100325
09:00+21ese235497 0.0 1004526
12:00+20se46571 0.0 1005513
15:00+19se45605 0.0 1006487
18:00+17ese12665 0.0 1007360
21:00+13wnw11840 0.0 101010